Location: Boiro
(42.6475°N, 8.8834°W)
Time: 13:40:46
(UTC+01:00)

Vanguard 1 Rocket - Pass Details

Date: 06 December 2021
Orbit: 651 x 4224 km, 34.3° (Epoch: 21 January)

Event Time Altitude Azimuth Distance (km) Brightness Sun altitude
Exits shadow 02:36:09 18° 96° (E) 4,371 10.9 -65.2°
Drops below altitude 10° 02:40:23 10° 87° (E) 5,518 11.5 -64.7°
Sets 02:46:30 0° 80° (E) 7,150 12.3 -63.9°
